Wind_Speed
12 12 11 9 8 8 9 9 9 10 10 10 10 9 8 9 10 11 12 11 11 12 13 13 12 12 12 11 11 11 10 9 8 8 8 7 6 6 6 6 5 5 5
13 13 11 9 9 10 10 9 10 10 11 11 11 10 9 9 11 11 12 12 12 12 13 14 13 13 13 13 12 12 12 11 10 10 9 8 8 7 7 7 7 7 7
13 13 11 10 10 10 10 10 10 11 12 12 12 11 10 10 11 13 13 13 13 14 14 15 15 15 15 14 14 13 13 13 12 12 11 10 10 9 9 9 9 9 9
13 14 12 11 11 11 11 11 11 13 13 13 12 12 11 12 12 12 13 13 13 14 15 15 15 15 16 16 16 15 15 14 14 14 13 12 12 11 11 10 11 10 10
13 14 13 11 11 11 12 13 13 14 14 13 13 13 12 11 11 11 12 12 12 13 14 15 16 16 17 18 17 17 17 16 16 16 15 15 14 14 13 12 12 12 12
13 14 12 11 11 12 13 13 14 14 14 13 13 12 11 10 10 10 11 11 12 13 14 15 17 16 17 18 19 19 18 18 17 17 17 17 16 16 15 15 15 15 14
14 13 12 12 13 13 14 14 15 15 15 13 12 12 12 11 9 9 10 11 12 13 14 14 16 16 17 18 18 19 19 19 19 18 18 18 18 18 17 17 17 17 16
14 13 13 13 14 14 14 14 14 14 14 14 13 12 11 11 10 10 10 10 11 12 14 14 15 16 17 17 18 18 19 19 19 19 19 19 19 18 18 19 19 19 18
13 14 13 13 13 13 14 14 13 13 13 13 12 11 10 9 10 10 10 11 12 12 13 14 15 16 17 18 19 20 19 19 19 19 19 20 20 20 20 20 20 20 20
12 12 11 12 12 13 13 13 12 12 12 11 10 9 8 8 9 9 9 10 12 13 14 14 15 16 18 19 19 20 20 20 20 21 21 21 21 21 21 21 21 21 21
12 12 11 11 12 12 12 11 10 10 10 9 9 8 8 9 9 9 9 10 11 13 14 15 15 16 17 19 20 20 20 20 20 21 21 21 22 22 23 23 23 23 24
13 12 11 10 11 12 11 10 9 9 9 9 8 8 8 8 8 9 9 10 11 12 13 15 16 17 17 18 19 20 20 21 21 21 22 22 23 23 23 23 24 24 25
12 12 11 11 11 11 10 10 10 9 9 9 8 8 9 7 8 9 9 9 10 10 12 13 14 15 17 17 18 18 19 20 20 22 22 22 22 23 23 24 25 25 25
14 13 12 12 12 11 11 11 10 9 9 8 8 8 8 8 8 9 10 10 10 11 12 12 13 14 15 16 17 17 19 20 20 22 23 23 23 23 24 25 26 27 27
15 15 15 14 12 11 11 10 10 9 8 8 8 8 9 8 9 9 9 10 10 11 11 12 12 12 13 14 16 17 18 19 20 21 22 23 23 24 24 26 27 28 29
15 16 16 13 13 13 10 9 9 9 8 8 8 9 9 9 9 10 11 11 11 11 11 11 12 12 13 14 15 16 16 17 19 20 21 21 23 24 25 26 28 28 28
16 16 14 14 14 13 11 10 10 9 9 8 9 9 10 10 11 11 11 11 11 11 11 11 12 13 13 14 15 16 17 18 20 21 22 23 23 24 25 26 27 27 27
16 15 14 14 14 13 11 11 11 10 10 10 10 10 10 11 11 11 11 11 11 10 10 10 11 12 13 14 15 17 18 19 20 21 22 23 24 25 25 26 26 27 28
16 15 14 14 13 12 12 12 12 11 12 11 11 11 11 11 12 12 12 12 11 11 11 12 13 13 13 14 15 16 18 19 20 21 22 24 24 25 26 27 28 28 28
17 16 15 13 13 13 13 13 13 12 12 12 12 12 12 12 12 12 13 13 12 12 12 13 14 14 15 16 17 17 18 18 19 21 22 24 25 26 27 27 28 28 29
16 14 14 13 13 13 13 13 13 13 13 13 13 13 13 13 14 14 14 14 14 14 14 14 14 14 15 16 17 18 19 20 21 22 23 24 25 26 27 28 28 29 30
15 15 14 13 13 13 14 14 14 14 14 14 14 14 14 14 15 15 15 15 15 15 15 15 15 15 16 16 17 18 19 20 21 22 22 23 24 25 26 27 28 30 30
17 16 15 15 15 15 16 15 15 15 15 15 16 16 15 15 15 15 15 15 15 16 16 16 16 17 17 18 19 19 20 20 20 21 23 24 25 26 27 28 29 30 30
17 16 16 16 16 17 17 17 17 17 17 16 17 16 16 16 17 17 16 16 17 17 17 17 18 18 19 19 20 20 21 21 22 22 24 25 25 26 27 28 29 30 31
17 17 17 17 18 18 17 17 17 17 17 17 17 18 18 18 18 18 18 18 17 18 18 19 20 20 20 20 21 21 22 22 23 24 25 25 26 27 28 29 30 31 32
19 19 19 19 18 19 19 18 18 18 18 18 18 18 18 18 18 18 17 17 18 19 19 20 21 21 21 21 21 21 22 23 24 25 25 27 27 28 29 30 31 32 33
Wind_Direction
315 322 318 316 318 318 319 318 321 321 319 318 317 308 294 265 254 249 246 243 241 243 241 241 238 234 232 229 227 229 231 235 238 237 236 236 240 244 248 250 251 249 248
317 319 313 307 311 313 315 316 317 316 315 315 312 306 292 276 258 251 246 245 243 244 242 242 239 235 231 229 229 230 232 234 234 235 236 237 242 248 250 249 249 248 249
312 315 316 311 308 307 310 313 314 313 312 310 307 301 289 284 270 258 251 251 247 245 243 241 238 234 232 231 231 232 233 235 235 236 238 242 244 249 251 252 252 252 254
303 307 310 309 307 305 305 309 308 308 307 303 301 296 290 281 271 261 253 252 253 245 242 240 236 237 234 232 232 234 235 236 238 239 241 245 247 248 252 253 253 254 254
300 302 303 303 303 306 307 307 307 307 306 300 297 294 287 276 263 257 253 250 250 243 241 242 240 240 235 233 234 238 239 240 241 241 244 248 249 249 250 251 253 255 257
293 297 302 302 306 310 310 309 308 308 307 303 294 292 284 274 262 255 252 250 252 247 244 246 241 237 234 235 238 240 240 242 242 244 247 249 251 252 252 253 254 255 256
292 298 305 303 304 307 308 308 307 308 307 304 301 294 285 274 262 258 257 255 254 252 247 245 241 238 237 239 241 241 241 243 242 244 247 250 252 253 255 256 257 257 258
298 297 302 302 299 301 302 305 307 309 307 305 303 298 289 280 266 259 259 258 255 252 248 246 242 240 241 242 244 244 244 244 245 245 248 250 252 253 256 257 258 259 259
297 299 300 300 299 299 300 302 304 307 307 306 306 296 291 280 271 264 259 257 253 254 250 246 246 244 244 245 246 247 246 246 248 247 248 250 254 255 256 258 259 260 261
295 299 301 303 302 300 299 300 302 305 307 307 308 301 286 279 277 271 264 258 257 258 256 249 248 246 245 247 249 247 248 249 249 249 251 253 256 257 258 258 260 261 262
302 302 301 301 303 303 304 304 302 305 307 307 310 306 292 275 271 270 269 265 260 261 258 255 255 252 250 248 248 250 251 251 252 252 252 254 257 258 259 262 263 264 264
303 302 304 305 305 308 307 304 300 302 307 307 308 311 303 278 269 274 278 275 269 265 262 257 257 256 251 250 251 250 253 251 252 254 256 257 260 261 261 264 266 267 266
295 298 301 300 301 308 305 305 302 303 307 304 303 308 302 282 272 277 280 285 281 275 273 264 258 256 254 251 250 252 256 253 253 256 259 261 264 264 263 266 267 269 269
293 292 294 293 293 302 303 298 300 307 311 308 309 308 305 289 285 293 287 289 285 279 276 269 262 260 256 253 253 256 260 257 258 259 259 261 263 265 265 266 269 272 273
286 287 286 287 290 294 301 296 293 302 303 304 309 310 309 300 296 297 291 289 285 279 278 274 267 265 263 260 260 260 263 261 260 260 260 262 264 266 268 270 274 275 275
283 286 286 286 294 295 295 291 298 303 304 306 307 310 309 303 298 298 296 293 289 284 284 279 269 268 267 265 267 265 265 264 265 264 264 267 270 271 273 275 277 277 277
280 284 283 287 291 294 296 297 299 308 310 309 307 308 307 303 301 298 295 292 290 286 285 279 276 274 273 270 272 273 270 268 269 267 266 268 272 274 276 278 279 277 277
274 276 279 281 285 290 296 295 297 300 301 301 302 306 306 303 304 305 300 295 295 291 289 289 289 284 280 277 276 277 273 271 270 268 268 269 271 273 277 279 279 278 279
270 271 272 278 282 286 289 289 293 296 296 297 298 300 300 302 306 306 305 301 299 296 293 291 288 287 286 283 279 279 279 276 273 272 272 272 275 276 278 279 280 280 280
265 265 270 276 280 284 285 286 288 291 292 294 294 294 295 297 301 304 306 304 303 302 299 296 292 290 291 288 283 284 283 281 279 278 277 277 278 280 280 281 281 282 284
263 263 269 269 276 281 285 287 284 286 290 292 292 291 292 293 296 298 301 301 301 299 299 297 296 293 293 290 285 285 286 284 282 281 282 281 281 282 283 284 285 285 286
261 265 271 275 278 280 283 285 284 284 286 288 290 290 291 291 292 295 297 297 297 297 297 294 295 296 295 295 293 290 290 290 288 285 285 285 286 287 287 287 287 287 288
264 267 269 273 276 280 282 283 283 284 284 285 286 286 287 289 292 294 295 295 294 294 294 294 295 295 298 299 298 297 294 293 292 289 288 287 288 289 289 289 290 292 293
261 265 269 271 274 278 282 282 283 282 282 285 285 285 286 288 291 293 293 293 292 292 294 294 295 296 297 297 297 296 294 293 291 291 291 292 292 292 291 292 293 294 294
262 265 268 270 273 277 280 282 282 281 282 284 286 288 289 290 290 291 292 290 289 290 292 293 294 295 296 296 296 295 294 293 294 293 293 293 294 294 294 294 295 295 295
260 262 265 269 273 277 280 282 282 281 280 282 285 287 287 287 289 289 290 289 289 291 293 294 293 294 294 294 293 293 293 293 293 292 293 294 295 295 295 295 295 295 295
Height
5900 5899 5898 5896 5896 5895 5894 5893 5892 5890 5889 5888 5887 5886 5886 5886 5886 5886 5887 5888 5888 5889 5891 5892 5893 5894 5895 5896 5897 5898 5898 5899 5900 5901 5901 5901 5901 5901 5901 5901 5901 5900 5900
5898 5897 5896 5895 5894 5893 5892 5890 5889 5888 5887 5886 5885 5884 5883 5883 5883 5883 5884 5884 5885 5886 5887 5889 5890 5891 5892 5893 5894 5895 5896 5897 5898 5899 5899 5900 5900 5900 5900 5900 5900 5899 5899
5896 5895 5895 5893 5891 5890 5890 5888 5887 5886 5885 5883 5882 5881 5880 5879 5879 5880 5880 5880 5881 5883 5884 5885 5887 5888 5889 5890 5891 5893 5894 5895 5896 5896 5897 5898 5898 5898 5899 5898 5898 5898 5898
5894 5893 5892 5891 5890 5888 5887 5886 5885 5883 5882 5880 5879 5878 5877 5876 5876 5875 5876 5877 5878 5878 5880 5881 5883 5884 5886 5887 5888 5890 5891 5892 5893 5894 5894 5895 5896 5896 5896 5896 5896 5896 5896
5891 5890 5889 5888 5887 5886 5885 5883 5882 5880 5878 5876 5875 5874 5873 5872 5872 5872 5873 5874 5874 5875 5877 5878 5879 5880 5882 5884 5885 5887 5888 5889 5890 5890 5891 5892 5893 5893 5893 5893 5894 5894 5893
5889 5887 5885 5884 5884 5883 5882 5880 5879 5877 5876 5873 5872 5870 5870 5870 5869 5869 5870 5870 5871 5872 5873 5874 5876 5877 5878 5880 5881 5883 5884 5885 5886 5887 5888 5889 5889 5890 5890 5890 5890 5890 5890
5886 5884 5883 5882 5882 5880 5879 5878 5876 5874 5872 5870 5869 5868 5867 5867 5867 5867 5867 5868 5868 5869 5870 5871 5872 5873 5875 5876 5877 5878 5879 5881 5882 5883 5884 5884 5885 5886 5886 5887 5886 5886 5887
5882 5881 5880 5879 5879 5877 5876 5874 5873 5871 5869 5868 5866 5865 5864 5864 5864 5864 5864 5865 5865 5866 5866 5867 5868 5869 5870 5872 5873 5874 5875 5876 5877 5878 5879 5880 5880 5881 5881 5882 5882 5882 5882
5879 5878 5878 5877 5876 5874 5873 5871 5869 5868 5866 5865 5863 5862 5861 5861 5861 5861 5861 5861 5861 5862 5862 5863 5864 5865 5866 5868 5869 5870 5871 5872 5873 5874 5874 5875 5875 5876 5876 5877 5877 5878 5877
5876 5875 5874 5873 5872 5871 5870 5868 5866 5864 5863 5861 5860 5859 5858 5858 5858 5858 5858 5858 5858 5858 5859 5859 5860 5861 5862 5863 5864 5865 5866 5867 5868 5869 5870 5870 5871 5871 5871 5871 5872 5872 5872
5872 5872 5871 5870 5869 5867 5866 5864 5863 5861 5860 5859 5858 5857 5856 5856 5855 5856 5855 5855 5855 5855 5855 5855 5856 5856 5857 5857 5858 5860 5861 5862 5863 5864 5865 5865 5865 5866 5866 5866 5866 5866 5866
5869 5868 5868 5867 5866 5865 5863 5862 5860 5859 5858 5857 5856 5855 5854 5853 5853 5853 5853 5852 5851 5851 5851 5851 5851 5852 5852 5853 5854 5855 5856 5857 5858 5858 5859 5860 5860 5860 5860 5860 5860 5860 5859
5866 5866 5865 5864 5864 5863 5861 5860 5858 5856 5855 5855 5854 5853 5852 5851 5851 5850 5850 5849 5848 5848 5848 5847 5847 5847 5848 5849 5849 5850 5851 5851 5852 5853 5854 5854 5854 5854 5854 5854 5854 5853 5853
5863 5863 5862 5861 5860 5860 5859 5858 5857 5855 5854 5853 5852 5851 5850 5849 5848 5848 5846 5846 5845 5845 5844 5844 5843 5843 5843 5844 5845 5846 5846 5846 5847 5847 5848 5848 5848 5848 5848 5848 5847 5847 5846
5860 5859 5859 5858 5857 5856 5855 5854 5854 5852 5851 5851 5850 5849 5848 5847 5846 5845 5844 5843 5842 5842 5841 5840 5840 5840 5840 5840 5840 5841 5840 5841 5841 5841 5842 5842 5842 5842 5841 5841 5840 5839 5839
5856 5856 5855 5855 5854 5853 5851 5851 5851 5850 5849 5848 5848 5847 5846 5845 5844 5843 5842 5840 5839 5838 5837 5837 5837 5837 5836 5836 5836 5835 5835 5835 5835 5836 5836 5836 5835 5835 5835 5834 5833 5832 5831
5852 5852 5851 5851 5851 5849 5848 5848 5847 5847 5847 5847 5846 5845 5844 5843 5841 5840 5839 5837 5836 5835 5834 5833 5833 5833 5833 5832 5831 5831 5830 5830 5830 5830 5830 5830 5830 5829 5828 5827 5826 5825 5824
5848 5848 5847 5848 5848 5847 5846 5846 5846 5845 5844 5844 5843 5842 5841 5840 5839 5837 5835 5834 5833 5832 5831 5831 5830 5830 5829 5828 5827 5826 5825 5825 5825 5824 5824 5824 5823 5823 5822 5821 5819 5817 5816
5843 5843 5843 5844 5844 5843 5843 5843 5842 5842 5841 5840 5839 5839 5838 5837 5836 5834 5833 5831 5830 5829 5828 5827 5827 5826 5825 5823 5822 5821 5820 5819 5819 5818 5818 5817 5817 5816 5815 5813 5812 5810 5808
5837 5838 5839 5839 5839 5839 5840 5839 5839 5838 5838 5837 5836 5835 5835 5834 5833 5831 5830 5829 5827 5826 5825 5824 5823 5821 5820 5819 5818 5817 5815 5814 5813 5812 5811 5811 5810 5809 5807 5805 5803 5802 5800
5832 5833 5834 5834 5835 5835 5836 5835 5834 5834 5834 5833 5832 5832 5831 5830 5829 5828 5827 5825 5824 5823 5822 5820 5819 5817 5816 5815 5813 5812 5810 5809 5808 5807 5805 5804 5802 5801 5799 5797 5795 5793 5791
5829 5829 5830 5831 5831 5831 5831 5831 5831 5830 5830 5829 5828 5828 5827 5826 5825 5824 5823 5822 5820 5819 5818 5816 5815 5813 5812 5810 5808 5807 5805 5804 5802 5801 5799 5797 5796 5794 5792 5789 5787 5784 5782
5824 5825 5826 5827 5827 5827 5827 5826 5826 5825 5825 5825 5824 5823 5822 5822 5821 5820 5819 5818 5816 5815 5814 5812 5811 5809 5807 5805 5804 5802 5800 5798 5796 5794 5792 5790 5788 5786 5784 5781 5779 5776 5773
5819 5820 5821 5822 5822 5822 5822 5822 5821 5821 5820 5820 5819 5818 5818 5817 5816 5815 5814 5813 5811 5810 5809 5807 5806 5804 5802 5800 5799 5797 5795 5793 5790 5788 5786 5784 5781 5779 5776 5773 5770 5767 5764
5814 5815 5816 5817 5817 5817 5817 5817 5816 5816 5815 5815 5814 5814 5813 5812 5811 5810 5809 5807 5806 5805 5804 5802 5801 5799 5797 5795 5793 5791 5789 5786 5784 5782 5779 5777 5774 5771 5768 5765 5761 5758 5755
5808 5809 5810 5811 5811 5812 5812 5811 5811 5810 5810 5810 5809 5808 5807 5806 5805 5804 5803 5802 5801 5800 5798 5797 5795 5793 5791 5789 5787 5784 5782 5779 5777 5774 5772 5769 5766 5763 5759 5756 5753 5749 5746